Home > Weather > Burbank > Past weeks

Flag for USA Weather for the Past 2 Weeks in Burbank, California, USA

Now
71 °F

Sunny.


Feels Like: 77 °F
Forecast: 51 / 74 °F
Wind: 9 mph from South

Location: Bob Hope Airport

Current Time: May 1, 2016 at 2:26:24 PM

Latest Report: May 1, 2016 at 1:53 PM


Visibility: 10 mi

Pressure: 29.87 "Hg

Humidity: 51%

Dew Point: 52 °F

Location of BurbankLocation

Historic Weather in Burbank — Graph

°F

Burbank Temperature Yesterday

Maximum temperature yesterday: 67 °F (at 1:53 PM)
Minimum temperature yesterday: 54 °F (at 2:53 AM)
Average temperature yesterday: 60 °F

High & Low Weather Summary for the Past Weeks

 TemperatureHumidityPressure
High88 °F (Apr 18, 2:53 PM)83% (Apr 30, 3:53 AM)30.04 "Hg (Apr 30, 3:53 AM)
Low47 °F (Apr 26, 5:53 AM)5% (Apr 16, 3:53 PM)29.70 "Hg (Apr 27, 7:53 PM)
Average66 °F43%29.88 "Hg
* Reported Apr 16 12:53 PM — May 1 12:53 PM, Burbank, Weather by CustomWeather, © 2016

Note: Actual official high and low records may vary slightly from our data, if they occured in-between our weather recording intervals... More about our weather records

Advertising

Burbank Weather History for the Previous 24 Hours

Scroll right to see more
 ConditionsComfort  
Time TempWeatherWind HumidityBarometerVisibility
12:53 PM
Sun, May 1
70 °FSunny.8 mph46%29.87 "Hg10 mi
11:53 AM67 °FSunny.6 mph53%29.88 "Hg10 mi
10:53 AM65 °FSunny.3 mph54%29.89 "Hg10 mi
9:53 AM62 °FSunny.6 mph60%29.89 "Hg10 mi
8:53 AM59 °FScattered clouds.No wind69%29.89 "Hg10 mi
7:53 AM57 °FPartly sunny.5 mph78%29.88 "Hg10 mi
6:53 AM56 °FOvercast.5 mph81%29.85 "Hg10 mi
5:53 AM55 °FOvercast.No wind74%29.83 "Hg10 mi
4:53 AM54 °FLow clouds.No wind74%29.83 "Hg10 mi
3:53 AM55 °FClear.No wind72%29.82 "Hg10 mi
2:53 AM55 °FClear.No wind69%29.81 "Hg10 mi
1:53 AM56 °FClear.No wind72%29.81 "Hg10 mi
12:53 AM57 °FClear.6 mph72%29.82 "Hg10 mi
11:53 PM
Sat, Apr 30
57 °FClear.3 mph72%29.81 "Hg10 mi
10:53 PM59 °FClear.6 mph64%29.81 "Hg10 mi
9:53 PM61 °FClear.7 mph58%29.80 "Hg10 mi
8:53 PM61 °FClear.3 mph58%29.78 "Hg10 mi
7:53 PM61 °FSunny.5 mph58%29.77 "Hg10 mi
6:53 PM63 °FSunny.8 mph54%29.75 "Hg10 mi
5:53 PM65 °FSunny.7 mph49%29.74 "Hg10 mi
4:53 PM66 °FScattered clouds.9 mph49%29.74 "Hg10 mi
3:53 PM66 °FSunny.12 mph47%29.74 "Hg10 mi
2:53 PM67 °FSunny.12 mph47%29.75 "Hg10 mi
Weather by CustomWeather, © 2016

See weather overviewHow to use our weather pages